User: anonymous   Login
Location: Unspecified
(0.0000°N, 0.0000°E)
Time: 04:36:38
(UTC+00:00)
Language:

POLYITAN 1 - Orbit

View from above orbital plane
View from above orbital plane
View from above satellite
View from above satellite

Ground track
Ground track

The orbit data is extracted from the following two-line orbital elements,

1 40042U 14033AJ  17324.31699084  .00000615  00000-0  72568-4 0  9992
2 40042  97.9146 235.1421 0015545 136.1455 224.0999 14.88223937185647
Epoch (UTC): 20 November 2017 07:36:28
Eccentricity: 0.0015545
inclination: 97.9146°
perigee height: 592 km
apogee height: 614 km
right ascension of ascending node: 235.1421°
argument of perigee: 136.1455°
revolutions per day: 14.88223937
mean anomaly at epoch: 224.0999°
orbit number at epoch: 18564

The dashed part of the orbit path shows where the satellite is in the earth's shadow,  

DLR